This is the latest recevied weather packets stored in our database for station/object KD8FRE. If no packets are shown the sender has not sent any weather packets the latest 10 day(s).
| Time | Temp. | Humidity | Pressure | Rain* | Wind** | Luminosity | Snow |
|---|---|---|---|---|---|---|---|
| 1777597963 | 8.89° C | 51% | 1014.2 hPa | 0 mm | - | 0 W/m² | - |
| 1777597662 | 9.44° C | 50% | 1014.1 hPa | 0 mm | - | 0 W/m² | - |
| 1777597357 | 9.44° C | 48% | 1014.2 hPa | 0 mm | - | 0 W/m² | - |
| 1777597053 | 9.44° C | 48% | 1014.1 hPa | 0 mm | - | 0 W/m² | - |
| 1777596750 | 9.44° C | 49% | 1014.3 hPa | 0 mm | - | 0 W/m² | - |
| 1777596446 | 9.44° C | 46% | 1014.1 hPa | 0 mm | - | 0 W/m² | - |
| 1777596144 | 9.44° C | 46% | 1014 hPa | 0 mm | - | 1 W/m² | - |
| 1777595840 | 9.44° C | 46% | 1014 hPa | 0 mm | - | 1 W/m² | - |
| 1777595535 | 9.44° C | 45% | 1014 hPa | 0 mm | - | 2 W/m² | - |
| 1777595231 | 9.44° C | 45% | 1014.2 hPa | 0 mm | - | 3 W/m² | - |
| 1777594927 | 10° C | 46% | 1014.1 hPa | 0 mm | - | 4 W/m² | - |
| 1777594623 | 10° C | 47% | 1013.9 hPa | 0 mm | - | 5 W/m² | - |
| 1777594321 | 9.44° C | 46% | 1014 hPa | 0 mm | - | 6 W/m² | - |
| 1777594016 | 10° C | 45% | 1014.2 hPa | 0 mm | - | 9 W/m² | - |
| 1777593712 | 10° C | 44% | 1014.2 hPa | 0 mm | - | 11 W/m² | - |
| 1777593409 | 10° C | 44% | 1014.1 hPa | 0 mm | - | 13 W/m² | - |
| 1777593108 | 10° C | 42% | 1014.2 hPa | 0 mm | - | 19 W/m² | - |
| 1777592807 | 10° C | 44% | 1013.9 hPa | 0 mm | - | 23 W/m² | - |
| 1777592503 | 10° C | 44% | 1014 hPa | 0 mm | - | 28 W/m² | - |
| 1777592198 | 10° C | 43% | 1014 hPa | 0 mm | - | 35 W/m² | - |
| 1777591895 | 10° C | 43% | 1014 hPa | 0 mm | - | 31 W/m² | - |
| 1777591592 | 10° C | 43% | 1014 hPa | 0 mm | - | 36 W/m² | - |
| 1777591288 | 10.56° C | 42% | 1013.9 hPa | 0 mm | - | 45 W/m² | - |
| 1777590984 | 10.56° C | 41% | 1014.1 hPa | 0 mm | - | 49 W/m² | - |
| 1777590680 | 11.11° C | 41% | 1014.2 hPa | 0 mm | - | 49 W/m² | - |
* Rain latest hour (hover to see other rain measurements)
** Current wind speed in m/s (hover to see current wind gust speed)